| time (UTC) | temp C | wind direction | speed KPH | gust KPH | rain 1hr cm | rain 24hr cm | rain mn cm | humidity % | barometer mb |
| 20260510191502 | 3 | 179 | 1.6 | 3.2 | 0.00 | 0.00 | 0.00 | 92 | 1031.3 |
| 20260510190113 | 4 | 179 | 1.6 | 3.2 | 0.00 | 0.00 | 0.00 | 97 | 1031.2 |
| 20260510184502 | 4 | 179 | 1.6 | 4.8 | 0.00 | 0.00 | 0.00 | 91 | 1031.1 |
| 20260510183106 | 5 | 179 | 0.0 | 1.6 | 0.00 | 0.00 | 0.00 | 91 | 1031.0 |
| 20260510181501 | 5 | 179 | 0.0 | 3.2 | 0.00 | 0.00 | 0.00 | 91 | 1030.9 |
| 20260510180108 | 5 | 179 | 0.0 | 0.0 | 0.00 | 0.00 | 0.00 | 90 | 1030.6 |
| 20260510174505 | 6 | 179 | 0.0 | 0.0 | 0.00 | 0.00 | 0.00 | 90 | 1030.7 |
| 20260510173101 | 6 | 179 | 0.0 | 0.0 | 0.00 | 0.00 | 0.00 | 90 | 1030.7 |
| 20260510171502 | 7 | 179 | 0.0 | 0.0 | 0.00 | 0.00 | 0.00 | 90 | 1030.7 |
| 20260510164501 | 7 | 179 | 0.0 | 4.8 | 0.00 | 0.00 | 0.00 | 91 | 1030.7 |
| 20260510163157 | 8 | 179 | 1.6 | 3.2 | 0.00 | 0.00 | 0.00 | 91 | 1030.7 |
| 20260510161504 | 8 | 179 | 1.6 | 4.8 | 0.00 | 0.00 | 0.00 | 90 | 1030.8 |
| 20260510160001 | 8 | 179 | 3.2 | 4.8 | 0.00 | 0.00 | 0.00 | 90 | 1030.9 |
| 20260510154602 | 9 | 179 | 1.6 | 4.8 | 0.00 | 0.00 | 0.00 | 90 | 1030.9 |
| 20260510153001 | 9 | 197 | 4.8 | 9.7 | 0.00 | 0.00 | 0.00 | 89 | 1030.9 |
| 20260510151631 | 10 | 9 | 3.2 | 4.8 | 0.00 | 0.00 | 0.00 | 89 | 1030.9 |
| 20260510150010 | 10 | 9 | 1.6 | 3.2 | 0.00 | 0.00 | 0.00 | 88 | 1031.0 |
| 20260510144503 | 10 | 9 | 0.0 | 0.0 | 0.00 | 0.00 | 0.00 | 88 | 1031.0 |
| 20260510143002 | 10 | 9 | 0.0 | 3.2 | 0.00 | 0.00 | 0.00 | 88 | 1030.9 |
| 20260510141502 | 11 | 9 | 0.0 | 3.2 | 0.00 | 0.00 | 0.00 | 87 | 1030.9 |
| 20260510140002 | 11 | 9 | 0.0 | 3.2 | 0.00 | 0.00 | 0.00 | 87 | 1031.0 |
| 20260510134502 | 11 | 9 | 0.0 | 0.0 | 0.00 | 0.00 | 0.00 | 87 | 1031.1 |
| 20260510133102 | 11 | 9 | 0.0 | 0.0 | 0.00 | 0.00 | 0.00 | 87 | 1031.2 |
| 20260510131504 | 11 | 9 | 0.0 | 0.0 | 0.00 | 0.00 | 0.00 | 86 | 1031.1 |
| 20260510130101 | 11 | 9 | 0.0 | 0.0 | 0.00 | 0.00 | 0.00 | 86 | 1031.2 |
| 20260510124502 | 11 | 9 | 0.0 | 0.0 | 0.00 | 0.00 | 0.00 | 86 | 1031.3 |
| 20260510123002 | 11 | 9 | 1.6 | 3.2 | 0.00 | 0.00 | 0.00 | 85 | 1031.4 |
| 20260510121604 | 11 | 9 | 0.0 | 3.2 | 0.00 | 0.00 | 0.00 | 85 | 1031.5 |
| 20260510120002 | 11 | 9 | 0.0 | 0.0 | 0.00 | 0.00 | 0.00 | 85 | 1031.4 |
| 20260510114601 | 11 | 9 | 0.0 | 0.0 | 0.00 | 0.00 | 0.00 | 84 | 1031.4 |
| 20260510113003 | 11 | 9 | 0.0 | 0.0 | 0.00 | 0.00 | 0.00 | 84 | 1031.3 |
| 20260510111602 | 11 | 9 | 0.0 | 3.2 | 0.00 | 0.00 | 0.00 | 84 | 1031.2 |
| 20260510110002 | 11 | 9 | 0.0 | 3.2 | 0.00 | 0.00 | 0.00 | 83 | 1031.1 |
| 20260510104603 | 12 | 116 | 0.0 | 3.2 | 0.00 | 0.00 | 0.00 | 82 | 1031.0 |
| 20260510103002 | 12 | 116 | 0.0 | 0.0 | 0.00 | 0.00 | 0.00 | 81 | 1031.0 |
| 20260510101501 | 12 | 116 | 0.0 | 0.0 | 0.00 | 0.00 | 0.00 | 81 | 1031.0 |
| 20260510100122 | 12 | 116 | 0.0 | 3.2 | 0.00 | 0.00 | 0.00 | 80 | 1030.9 |
| 20260510094501 | 12 | 116 | 0.0 | 4.8 | 0.00 | 0.00 | 0.00 | 79 | 1030.8 |
| 20260510093103 | 12 | 195 | 0.0 | 1.6 | 0.00 | 0.00 | 0.00 | 79 | 1030.7 |
| 20260510091501 | 12 | 102 | 3.2 | 6.4 | 0.00 | 0.00 | 0.00 | 79 | 1030.6 |
| 20260510090104 | 12 | 98 | 1.6 | 4.8 | 0.00 | 0.00 | 0.00 | 78 | 1030.4 |
| 20260510084502 | 12 | 166 | 1.6 | 4.8 | 0.00 | 0.00 | 0.00 | 77 | 1030.4 |
| 20260510083005 | 12 | 148 | 1.6 | 6.4 | 0.00 | 0.00 | 0.00 | 77 | 1030.1 |
| 20260510081602 | 12 | 150 | 1.6 | 8.0 | 0.00 | 0.00 | 0.00 | 77 | 1029.8 |
| 20260510080005 | 12 | 161 | 3.2 | 9.7 | 0.00 | 0.00 | 0.00 | 76 | 1029.6 |
| 20260510074602 | 12 | 151 | 3.2 | 8.0 | 0.00 | 0.00 | 0.00 | 76 | 1029.4 |
| 20260510073001 | 12 | 138 | 3.2 | 8.0 | 0.00 | 0.00 | 0.00 | 75 | 1029.2 |
| 20260510071602 | 13 | 90 | 4.8 | 8.0 | 0.00 | 0.00 | 0.00 | 76 | 1029.1 |
| 20260510070002 | 13 | 103 | 6.4 | 9.7 | 0.00 | 0.00 | 0.00 | 75 | 1029.0 |
| 20260510064601 | 13 | 144 | 6.4 | 9.7 | 0.00 | 0.00 | 0.00 | 75 | 1028.9 |
| 20260510063002 | 13 | 136 | 4.8 | 16.1 | 0.00 | 0.00 | 0.00 | 74 | 1028.9 |
| 20260510061503 | 13 | 161 | 8.0 | 16.1 | 0.00 | 0.00 | 0.00 | 74 | 1028.8 |
| 20260510054502 | 14 | 188 | 9.7 | 17.7 | 0.00 | 0.00 | 0.00 | 72 | 1028.7 |
| 20260510053119 | 15 | 204 | 12.9 | 16.1 | 0.00 | 0.00 | 0.00 | 71 | 1028.5 |
| 20260510051609 | 15 | 181 | 12.9 | 19.3 | 0.00 | 0.00 | 0.00 | 70 | 1028.5 |
| 20260510050002 | 15 | 183 | 9.7 | 17.7 | 0.00 | 0.00 | 0.00 | 70 | 1028.4 |
| 20260510044602 | 15 | 169 | 11.3 | 16.1 | 0.00 | 0.00 | 0.00 | 70 | 1028.3 |
| 20260510043003 | 16 | 169 | 8.0 | 14.5 | 0.00 | 0.00 | 0.00 | 70 | 1028.2 |
| 20260510041602 | 15 | 207 | 6.4 | 16.1 | 0.00 | 0.00 | 0.00 | 71 | 1028.2 |
| 20260510040001 | 15 | 179 | 14.5 | 22.5 | 0.00 | 0.00 | 0.00 | 72 | 1028.2 |
| 20260510034604 | 15 | 165 | 12.9 | 20.9 | 0.00 | 0.00 | 0.00 | 74 | 1028.2 |
| 20260510033002 | 15 | 115 | 11.3 | 17.7 | 0.00 | 0.00 | 0.00 | 75 | 1028.1 |
| 20260510031502 | 14 | 135 | 8.0 | 16.1 | 0.00 | 0.00 | 0.00 | 76 | 1028.2 |
| 20260510030105 | 13 | 109 | 6.4 | 12.9 | 0.00 | 0.00 | 0.00 | 76 | 1028.2 |
| 20260510024502 | 14 | 121 | 8.0 | 11.3 | 0.00 | 0.00 | 0.00 | 75 | 1028.4 |
| 20260510023102 | 14 | 54 | 4.8 | 11.3 | 0.00 | 0.00 | 0.00 | 80 | 1028.5 |
| 20260510021501 | 13 | 85 | 1.6 | 9.7 | 0.00 | 0.00 | 0.00 | 82 | 1028.8 |
| 20260510020002 | 12 | 143 | 3.2 | 9.7 | 0.00 | 0.00 | 0.00 | 89 | 1029.1 |
| 20260510014602 | 12 | 190 | 1.6 | 8.0 | 0.00 | 0.00 | 0.00 | 93 | 1029.4 |
| 20260510013002 | 11 | 159 | 4.8 | 8.0 | 0.00 | 0.00 | 0.00 | 94 | 1029.6 |
| 20260510011603 | 10 | 165 | 3.2 | 8.0 | 0.00 | 0.00 | 0.00 | 95 | 1029.8 |
| 20260510010002 | 10 | 136 | 3.2 | 6.4 | 0.00 | 0.00 | 0.00 | 95 | 1029.8 |
| 20260510004603 | 10 | 16 | 0.0 | 1.6 | 0.00 | 0.00 | 0.00 | 95 | 1029.8 |
| 20260510003002 | 9 | 16 | 0.0 | 0.0 | 0.00 | 0.00 | 0.00 | 95 | 1030.0 |
| 20260510001601 | 8 | 322 | 0.0 | 3.2 | 0.00 | 0.00 | 0.00 | 95 | 1029.9 |
| 20260510000002 | 8 | 56 | 0.0 | 3.2 | 0.00 | 0.00 | 0.00 | 95 | 1030.0 |
| 20260509234603 | 7 | 308 | 0.0 | 3.2 | 0.00 | 0.00 | 0.00 | 95 | 1030.1 |
| 20260509233001 | 7 | 308 | 0.0 | 1.6 | 0.00 | 0.00 | 0.00 | 95 | 1030.1 |
| 20260509231602 | 7 | 308 | 0.0 | 1.6 | 0.00 | 0.00 | 0.00 | 95 | 1030.0 |
| 20260509230002 | 6 | 271 | 0.0 | 1.6 | 0.00 | 0.00 | 0.00 | 95 | 1029.9 |
| 20260509224601 | 6 | 254 | 0.0 | 0.0 | 0.00 | 0.00 | 0.00 | 95 | 1029.8 |
| 20260509223004 | 6 | 254 | 0.0 | 1.6 | 0.00 | 0.00 | 0.00 | 95 | 1029.7 |
| 20260509221603 | 5 | 339 | 0.0 | 3.2 | 0.00 | 0.00 | 0.00 | 95 | 1029.6 |
| 20260509220004 | 5 | 338 | 0.0 | 3.2 | 0.00 | 0.00 | 0.00 | 95 | 1029.3 |
| 20260509213003 | 5 | 338 | 0.0 | 1.6 | 0.00 | 0.00 | 0.00 | 94 | 1029.0 |
| 20260509211603 | 4 | 339 | 0.0 | 4.8 | 0.00 | 0.00 | 0.00 | 94 | 1028.8 |
| 20260509210002 | 4 | 339 | 0.0 | 3.2 | 0.00 | 0.00 | 0.00 | 94 | 1028.6 |
| 20260509204602 | 3 | 338 | 0.0 | 1.6 | 0.00 | 0.00 | 0.00 | 94 | 1028.4 |
| 20260509203002 | 3 | 198 | 0.0 | 1.6 | 0.00 | 0.00 | 0.00 | 94 | 1028.3 |
| 20260509201610 | 3 | 198 | 0.0 | 3.2 | 0.00 | 0.00 | 0.00 | 94 | 1028.2 |
| 20260509200110 | 3 | 198 | 0.0 | 3.2 | 0.00 | 0.00 | 0.00 | 94 | 1028.1 |
| 20260509194501 | 3 | 198 | 0.0 | 0.0 | 0.00 | 0.00 | 0.00 | 94 | 1027.9 |
| 20260509193103 | 3 | 198 | 0.0 | 0.0 | 0.00 | 0.00 | 0.00 | 94 | 1027.7 |